This demonstration page uses our WeatherBlox Daily Observations layout. Learn more.

38.89511, -77.03637

Hourly Observations for August 25, 2015

Temp ( °F °C ) Dew Point ( °F °C ) Humidity (%) Winds ( mph kmh ) Pressure ( in mb ) Visibility ( mi km ) Precip ( " mm )
12:32 am 00:32 Mostly Cloudy 77 25 73 23 89 89 Calm 29.88 1012 10 16.0934 0 0
12:52 am 00:52 Mostly Cloudy 76 24.4 73 22.8 91 91 Calm 29.87 1012 10 16.0934 0 0
1:52 am 01:52 Partly Cloudy 75 23.9 73 22.8 94 94 NNW 7 11 29.87 1011 10 16.0934 0 0
2:52 am 02:52 Mostly Clear 74 23.3 69 20.6 85 85 NNW 8 13 29.86 1011 10 16.0934 0 0
3:52 am 03:52 Mostly Clear 73 22.8 66 18.9 79 79 N 9 15 29.87 1012 10 16.0934 0 0
4:52 am 04:52 Mostly Clear 71 21.7 63 17.2 76 76 NNW 6 9 29.88 1012 10 16.0934 0 0
5:52 am 05:52 Partly Cloudy 69 20.6 63 17.2 81 81 N 8 13 29.89 1012 10 16.0934 0 0
6:52 am 06:52 Mostly Cloudy 69 20.6 61 16.1 76 76 NNW 8 13 29.91 1013 10 16.0934 0 0
7:52 am 07:52 Mostly Cloudy 69 20.6 60 15.6 73 73 NNW 9 15 29.91 1013 10 16.0934 0 0
8:52 am 08:52 Partly Cloudy 74 23.3 59 15 60 60 NNW 12 19 29.93 1014 10 16.0934 0 0
9:52 am 09:52 Partly Cloudy 76 24.4 58 14.4 54 54 NNW 8 13 29.95 1014 10 16.0934 0 0
10:52 am 10:52 Partly Cloudy 78 25.6 56 13.3 47 47 NNW 8 13 29.95 1014 10 16.0934 0 0
11:52 am 11:52 Partly Cloudy 80 26.7 55 12.8 42 42 NNW 9 15 29.94 1014 10 16.0934 0 0
12:52 pm 12:52 Partly Cloudy 82 27.8 57 13.9 42 42 N 9 15 29.93 1014 10 16.0934 0 0
1:52 pm 13:52 Partly Cloudy 81 27.2 56 13.3 42 42 NE 8 13 29.91 1013 10 16.0934 0 0
2:52 pm 14:52 Mostly Sunny 84 28.9 55 12.8 37 37 VRB 7 11 29.9 1012 10 16.0934 0 0
3:52 pm 15:52 Mostly Sunny 84 28.9 54 12.2 36 36 N 14 22 29.88 1012 10 16.0934 0 0
4:52 pm 16:52 Mostly Sunny 84 28.9 54 12.2 36 36 NNW 10 17 29.88 1012 10 16.0934 0 0
5:52 pm 17:52 Mostly Sunny 83 28.3 54 12.2 37 37 N 6 9 29.89 1012 10 16.0934 0 0
6:52 pm 18:52 Mostly Sunny 82 27.8 54 12.2 38 38 NNW 7 11 29.9 1013 10 16.0934 0 0
7:52 pm 19:52 Mostly Clear 79 26.1 53 11.7 41 41 NNW 6 9 29.91 1013 10 16.0934 0 0
8:52 pm 20:52 Mostly Cloudy 77 25 56 13.3 48 48 N 7 11 29.93 1013 10 16.0934 0 0
9:52 pm 21:52 Mostly Cloudy 76 24.4 58 14.4 54 54 NNW 6 9 29.94 1014 10 16.0934 0 0
10:52 pm 22:52 Mostly Cloudy 76 24.4 55 12.8 48 48 NNW 10 17 29.95 1014 10 16.0934 0 0
11:52 pm 23:52 Mostly Clear 72 22.2 55 12.8 55 55 NNW 10 17 29.96 1015 10 16.0934 0 0

Powered by AerisWeather